User: anonymous   Login
Location: Unspecified
(0.0000°N, 0.0000°E)
Time: 12:37:30
(UTC+00:00)
Language:

GALILEO-FM3 - Orbit

View from above orbital plane
View from above orbital plane
View from above satellite
View from above satellite

Ground track
Ground track

The orbit data is extracted from the following two-line orbital elements,

1 38857U 12055A   17087.30757499 +.00000000 +00000-0 +00000-0 0  9991
2 38857 054.9112 194.2704 0003587 228.1289 131.8403 01.70473595027759
Epoch (UTC): 28 March 2017 07:22:54
Eccentricity: 0.0003587
inclination: 54.9112°
perigee height: 23211 km
apogee height: 23232 km
right ascension of ascending node: 194.2704°
argument of perigee: 228.1289°
revolutions per day: 1.70473595
mean anomaly at epoch: 131.8403°
orbit number at epoch: 2775

The dashed part of the orbit path shows where the satellite is in the earth's shadow,  

DLR